Location: Ferintosh
(52.7647°N, 112.9692°W)
Time: 22:27:52
(UTC+00:00)

A-11 Canister half - Pass Details

Date: 27 May 2024
Orbit: 1524 x 1683 km, 47.3° (Epoch: 19 June)

Event Time Altitude Azimuth Distance (km) Brightness Sun altitude
Rises 05:13:24 0° 248° (WSW) 4,685 11.7 -10.2°
Reaches altitude 10° 05:16:27 10° 245° (WSW) 3,715 11.1 -10.5°
Maximum altitude 05:25:37 61° 168° (SSE) 1,755 9.0 -11.1°
Drops below altitude 10° 05:35:05 10° 92° (E) 3,832 10.8 -11.8°
Sets 05:38:17 0° 89° (E) 4,840 11.4 -12.0°
